Hourly Weather Roundup
Issued by NWS Central Illinois

Home | Current Version | Previous Version | Text Only | Print | Product List | Glossary On
Versions: 1 2 3 4 5 6 7 8 9 10 11 12 13 14 15 16 17 18 19 20 21 22 23 24 25 26 27 28 29 30 31 32 33 34 35 36 37 38 39 40 41 42 43 44 45 46 47 48 49 50
000
NZUS43 KILX 291210
HWRILX

AREA WEATHER ROUNDUP
NATIONAL WEATHER SERVICE, LINCOLN IL
700 AM CDT THU SEP 29 2016


CITY           SKY/WX    TMP DP  RH WIND       PRES   REMARKS
BLOOMINGTON    LGT RAIN  57  54  89 N15       30.11R
6HR MIN TEMP:  55; 6HR MAX TEMP:  57; 6HR PCP: TRACE;

CHAMPAIGN      CLOUDY    58  55  90 N12       30.06R
6HR MIN TEMP:  55; 6HR MAX TEMP:  58; 6HR PCP:  0.19;

DANVILLE       CLOUDY    56  55  98 N7        30.03R
6HR MIN TEMP:  54; 6HR MAX TEMP:  56; 6HR PCP:  0.04;

DECATUR        CLOUDY    59  53  80 N17       30.08R
6HR MIN TEMP:  56; 6HR MAX TEMP:  59; 6HR PCP: TRACE;

EFFINGHAM      CLOUDY    55  55  98 NW7       30.07R
FLORA          CLOUDY    57  53  86 NW8       30.06R
6HR MIN TEMP:  54; 6HR MAX TEMP:  57;

GALESBURG      CLOUDY    53  50  90 N14G22    30.21S
JACKSONVILLE   MOCLDY    53  50  89 NW12G17   30.17R
6HR MIN TEMP:  51; 6HR MAX TEMP:  53;

LACON          PTCLDY    56  52  87 N10       30.15R
6HR MIN TEMP:  54; 6HR MAX TEMP:  56;

LAWRENCEVILLE  LGT RAIN  55  53  93 NW7       30.03R FOG
6HR MIN TEMP:  53; 6HR MAX TEMP:  55; 6HR PCP:  0.05;

LITCHFIELD     CLOUDY    53  49  85 NW16G22   30.11S
$$


CITY           SKY/WX    TMP DP  RH WIND       PRES   REMARKS
LINCOLN        CLOUDY    57  54  88 N8G16     30.12R
6HR MIN TEMP:  54; 6HR MAX TEMP:  57;

MACOMB         CLOUDY    52  50  93 N10       30.23R
MATTOON        RAIN      55  53  93 N7        30.04R FOG
6HR MIN TEMP:  55; 6HR MAX TEMP:  57; 6HR PCP:  0.07;

MT CARMEL AP   RAIN      54  52  95 W3        30.03R
6HR MIN TEMP:  53; 6HR MAX TEMP:  55; 6HR PCP:  0.03;

OLNEY-NOBLE AP CLOUDY    54  54 100 NW7       30.05R
PARIS          CLOUDY    55  55 100 CALM      30.05R
6HR MIN TEMP:  54; 6HR MAX TEMP:  56; 6HR PCP:  0.05;

PEORIA         CLOUDY    57  54  89 N10       30.16R
6HR MIN TEMP:  54; 6HR MAX TEMP:  57;

PONTIAC        LGT RAIN  58  57  96 NE14G20   30.12R
RANTOUL        CLOUDY    60  57  92 N14G20    30.07R
6HR MIN TEMP:  56; 6HR MAX TEMP:  60; 6HR PCP:  0.19;

ROBINSON       CLOUDY    55  54  99 N5        30.04R
6HR MIN TEMP:  52; 6HR MAX TEMP:  55; 6HR PCP:  0.07;

SPRINGFIELD    CLOUDY    56  51  84 N13G21    30.14R
6HR MIN TEMP:  54; 6HR MAX TEMP:  56;

TAYLORVILLE    CLOUDY    55  51  87 N15G25    30.10S
$$

...REGIONAL REPORTS...


CITY           SKY/WX    TMP DP  RH WIND       PRES   REMARKS
CHICAGO O`HARE CLOUDY    62  56  80 N18G25    30.12R
KANKAKEE       CLOUDY    57  56  94 CALM      30.10R
MOLINE         CLOUDY    55  50  83 N9        30.23R
MOUNT STERLING PTCLDY    50  49  95 N9        30.20R
MOUNT VERNON   CLOUDY    55  46  71 CALM      30.08R
PITTSFIELD     CLEAR     53  50  91 NW13      30.20R
QUINCY         CLEAR     51  49  92 NW12      30.21R
ROCKFORD       CLOUDY    58  52  80 N20       30.23R
$$


CITY           SKY/WX    TMP DP  RH WIND       PRES   REMARKS
BURLINGTON     CLEAR     51  50  96 N10       30.23R
CEDAR RAPIDS   CLEAR     51  51 100 N12       30.29S
DES MOINES     PTCLDY    52  49  89 N8        30.36R
KIRKSVILLE     CLEAR     49  46  90 NW7       30.29R
OTTUMWA        CLEAR     47  45  93 NW9       30.31R
ST LOUIS       PTCLDY    54  48  80 NW8       30.16R
$$


CITY           SKY/WX    TMP DP  RH WIND       PRES   REMARKS
TERRE HAUTE    CLOUDY    55  53  93 N5        30.03R
EVANSVILLE     LGT RAIN  54  51  90 W6        30.04S
INDIANAPOLIS   CLOUDY    55  51  86 N9        30.02R
LAFAYETTE      NOT AVBL
MADISON        CLOUDY    52  50  93 N10       30.28R
MILWAUKEE      MOCLDY    59  55  87 N18G29    30.21R
$$





USA.gov is the U.S. government's official web portal to all federal, state and local government web resources and services.